TAM3881 SBCT-SBPV

Flight info

Callsign TAM3881
Flight time N/A
Altitude FL360
Route BOLIP UZ63 ANGAS UL655 DIKAL
Aircraft A20N/M-VGDW/C

Departure

Time 2026-04-28 12:59
Airport Curitiba-Afonso Pena International Airport (SBCT)

Arrival

Time N/A
Airport Governador Jorge Teixeira de Oliveira International Airport (SBPV)
Time Latitude Longitude Altitude Speed Heading
2026-04-28 12:57 -25.53600 -49.16735 2999 ft 0 kts 315°
2026-04-28 12:58 -25.53544 -49.16798 2999 ft 37 kts 315°
2026-04-28 12:58 -25.53211 -49.17170 3000 ft 100 kts 315°
2026-04-28 12:58 -25.52582 -49.17874 3000 ft 158 kts 315°
2026-04-28 12:59 -25.51714 -49.18844 3260 ft 191 kts 315°
2026-04-28 12:59 -25.50745 -49.19928 3996 ft 203 kts 315°
2026-04-28 12:59 -25.49740 -49.21040 4822 ft 207 kts 316°
2026-04-28 12:59 -25.48600 -49.22074 5386 ft 222 kts 322°
2026-04-28 13:00 -25.47296 -49.23174 5780 ft 251 kts 323°
2026-04-28 13:00 -25.45834 -49.24406 6208 ft 280 kts 322°
2026-04-28 13:00 -25.44229 -49.25780 6629 ft 302 kts 322°
2026-04-28 13:00 -25.42575 -49.27216 7027 ft 302 kts 322°
2026-04-28 13:01 -25.40929 -49.28659 7428 ft 305 kts 321°
2026-04-28 13:01 -25.39253 -49.30138 7833 ft 310 kts 321°
2026-04-28 13:01 -25.37571 -49.31630 8233 ft 312 kts 321°
2026-04-28 13:01 -25.35879 -49.33134 8633 ft 315 kts 321°
2026-04-28 13:02 -25.34167 -49.34660 9035 ft 317 kts 321°
2026-04-28 13:02 -25.32456 -49.36187 9434 ft 319 kts 321°
2026-04-28 13:02 -25.30725 -49.37732 9836 ft 321 kts 321°
2026-04-28 13:02 -25.28985 -49.39286 10236 ft 323 kts 321°
2026-04-28 13:03 -25.27238 -49.40846 10637 ft 325 kts 321°
2026-04-28 13:03 -25.25477 -49.42420 11038 ft 327 kts 321°
2026-04-28 13:03 -25.23715 -49.43993 11437 ft 329 kts 321°
2026-04-28 13:03 -25.21933 -49.45584 11838 ft 330 kts 321°
2026-04-28 13:04 -25.20148 -49.47177 12237 ft 332 kts 321°
2026-04-28 13:04 -25.18344 -49.48786 12639 ft 334 kts 321°
2026-04-28 13:04 -25.16536 -49.50399 13039 ft 336 kts 321°
2026-04-28 13:04 -25.14713 -49.52024 13440 ft 338 kts 321°
2026-04-28 13:05 -25.12885 -49.53653 13839 ft 340 kts 321°
2026-04-28 13:05 -25.11044 -49.55294 14240 ft 342 kts 321°
2026-04-28 13:05 -25.09188 -49.56946 14641 ft 344 kts 321°
2026-04-28 13:05 -25.07329 -49.58601 15040 ft 346 kts 321°
2026-04-28 13:06 -25.05449 -49.60274 15442 ft 348 kts 321°
2026-04-28 13:06 -25.03569 -49.61947 15841 ft 350 kts 321°
2026-04-28 13:06 -25.01667 -49.63638 16242 ft 352 kts 321°
2026-04-28 13:06 -24.99762 -49.65331 16642 ft 354 kts 321°
2026-04-28 13:07 -24.97839 -49.67039 17043 ft 356 kts 321°
2026-04-28 13:07 -24.95907 -49.68755 17443 ft 358 kts 321°
2026-04-28 13:07 -24.93969 -49.70476 17843 ft 360 kts 321°
2026-04-28 13:07 -24.92010 -49.72214 18244 ft 363 kts 321°
2026-04-28 13:08 -24.90047 -49.73956 18644 ft 365 kts 321°
2026-04-28 13:08 -24.88068 -49.75710 19044 ft 367 kts 321°
2026-04-28 13:08 -24.86083 -49.77470 19444 ft 369 kts 321°
2026-04-28 13:08 -24.84078 -49.79246 19845 ft 371 kts 321°
2026-04-28 13:09 -24.82079 -49.81018 20243 ft 373 kts 321°
2026-04-28 13:09 -24.80048 -49.82818 20645 ft 375 kts 321°
2026-04-28 13:09 -24.78023 -49.84613 21044 ft 376 kts 321°
2026-04-28 13:09 -24.75978 -49.86426 21446 ft 378 kts 321°
2026-04-28 13:10 -24.73931 -49.88241 21845 ft 380 kts 321°
2026-04-28 13:10 -24.71879 -49.90060 22244 ft 382 kts 321°
2026-04-28 13:10 -24.69803 -49.91900 22646 ft 384 kts 321°
2026-04-28 13:10 -24.67725 -49.93741 23045 ft 386 kts 321°
2026-04-28 13:11 -24.65635 -49.95593 23445 ft 389 kts 321°
2026-04-28 13:11 -24.63522 -49.97464 23807 ft 393 kts 321°
2026-04-28 13:11 -24.61374 -49.99366 23944 ft 402 kts 321°
2026-04-28 13:11 -24.59173 -50.01313 23998 ft 411 kts 321°
2026-04-28 13:12 -24.56940 -50.03289 24003 ft 414 kts 321°
2026-04-28 13:12 -24.54718 -50.05261 23999 ft 408 kts 321°
2026-04-28 13:12 -24.52532 -50.07213 23998 ft 405 kts 321°
2026-04-28 13:12 -24.50357 -50.09160 23998 ft 405 kts 321°
2026-04-28 13:13 -24.48172 -50.11109 23998 ft 404 kts 321°
2026-04-28 13:13 -24.45998 -50.13044 23999 ft 404 kts 321°
2026-04-28 13:13 -24.43813 -50.14984 23999 ft 404 kts 321°
2026-04-28 13:13 -24.41640 -50.16911 23999 ft 403 kts 321°
2026-04-28 13:14 -24.39458 -50.18842 23999 ft 403 kts 321°
2026-04-28 13:14 -24.37280 -50.20767 23999 ft 403 kts 321°
2026-04-28 13:14 -24.35100 -50.22692 23999 ft 403 kts 321°
2026-04-28 13:14 -24.32915 -50.24621 23999 ft 403 kts 321°
2026-04-28 13:15 -24.30749 -50.26531 23999 ft 403 kts 321°
2026-04-28 13:15 -24.28556 -50.28464 23999 ft 403 kts 321°
2026-04-28 13:15 -24.26377 -50.30385 23999 ft 403 kts 321°
2026-04-28 13:15 -24.24200 -50.32306 23999 ft 403 kts 321°
2026-04-28 13:16 -24.22011 -50.34236 23999 ft 403 kts 321°
2026-04-28 13:16 -24.19834 -50.36157 23999 ft 403 kts 321°
2026-04-28 13:16 -24.17658 -50.38075 23999 ft 403 kts 321°
2026-04-28 13:16 -24.15472 -50.40000 23999 ft 403 kts 321°
2026-04-28 13:17 -24.13296 -50.41914 23999 ft 403 kts 321°
2026-04-28 13:17 -24.11113 -50.43834 23999 ft 403 kts 321°
2026-04-28 13:17 -24.08928 -50.45756 23999 ft 403 kts 321°
2026-04-28 13:17 -24.06746 -50.47675 23999 ft 403 kts 321°
2026-04-28 13:18 -24.04563 -50.49595 23999 ft 403 kts 321°
2026-04-28 13:18 -24.02390 -50.51507 23999 ft 403 kts 321°
2026-04-28 13:18 -24.00210 -50.53425 23999 ft 403 kts 321°
2026-04-28 13:18 -23.98022 -50.55350 23999 ft 403 kts 321°
2026-04-28 13:19 -23.95842 -50.57268 23999 ft 403 kts 321°
2026-04-28 13:19 -23.93667 -50.59179 23999 ft 403 kts 321°
2026-04-28 13:19 -23.91484 -50.61095 23999 ft 403 kts 321°
2026-04-28 13:19 -23.89298 -50.63010 23999 ft 403 kts 321°
2026-04-28 13:20 -23.87122 -50.64916 23999 ft 403 kts 321°
2026-04-28 13:20 -23.84935 -50.66830 23999 ft 403 kts 321°
2026-04-28 13:20 -23.82747 -50.68745 23999 ft 403 kts 321°
2026-04-28 13:20 -23.80568 -50.70650 23999 ft 403 kts 321°
2026-04-28 13:21 -23.78382 -50.72561 23999 ft 403 kts 321°
2026-04-28 13:21 -23.76195 -50.74472 23999 ft 403 kts 321°
2026-04-28 13:21 -23.74017 -50.76374 23999 ft 403 kts 321°
2026-04-28 13:21 -23.71829 -50.78285 23999 ft 403 kts 321°
2026-04-28 13:22 -23.69643 -50.80193 23999 ft 403 kts 321°
2026-04-28 13:22 -23.67463 -50.82095 23999 ft 403 kts 321°
2026-04-28 13:22 -23.65273 -50.84005 23999 ft 403 kts 321°
2026-04-28 13:22 -23.63087 -50.85912 23999 ft 403 kts 321°
2026-04-28 13:23 -23.60904 -50.87814 23999 ft 403 kts 321°
2026-04-28 13:23 -23.58713 -50.89724 23999 ft 403 kts 321°
2026-04-28 13:23 -23.56532 -50.91623 23999 ft 403 kts 321°
2026-04-28 13:23 -23.54346 -50.93526 23999 ft 403 kts 321°
2026-04-28 13:24 -23.52157 -50.95431 23999 ft 403 kts 321°
2026-04-28 13:24 -23.49970 -50.97332 23999 ft 403 kts 321°
2026-04-28 13:24 -23.47786 -50.99231 23999 ft 403 kts 321°
2026-04-28 13:24 -23.45602 -51.01130 23999 ft 403 kts 321°
2026-04-28 13:25 -23.44285 -51.02274 23999 ft 403 kts 321°